Weather History for GMFO - February, 2013

Change the Weather History Date:

Wednesday, February 20, 2013

  Actual Average Record
Temperature  
Mean Temperature 52 °F -  
Max Temperature 57 °F 64 °F 75 °F (1997)
Min Temperature 48 °F 42 °F 32 °F (2005)
Degree Days  
Heating Degree Days 12    
Growing Degree Days 2 (Base 50)    
Moisture  
Dew Point 44 °F    
Average Humidity 76    
Maximum Humidity 94    
Minimum Humidity 49    
Precipitation  
Precipitation 0.16 in 0.06 in - ()
Sea Level Pressure  
Sea Level Pressure 29.97 in    
Wind  
Wind Speed 8 mph ()    
Max Wind Speed 17 mph    
Max Gust Speed -    
Visibility 5.8 miles    
Events Rain , Thunderstorm    
Averages and records for this station are not official NWS values.
T = Trace of Precipitation, MM = Missing Value Source: Averaged Metar Reports

Daily Weather History Graph

Daily Weather History Graph

Search for Another Location

Airport or City:

Trip Planner

Search our weather history database for the weather conditions in past years. The results will help you decide how hot, cold, wet, or windy it might be!

Date:

Astronomy

Feb. 20, 2013 Rise Set
Actual Time 6:47 AM WET 5:55 PM WET
Civil Twilight 6:22 AM WET 6:21 PM WET
Nautical Twilight 5:52 AM WET 6:50 PM WET
Astronomical Twilight 5:23 AM WET 7:19 PM WET
Moon 1:11 PM WET (2/20) 2:49 AM WET (2/20)
Length of Visible Light 11h 58m
Length of Day
11h 07m
Waxing Gibbous, 74% of the Moon is Illuminated
Feb 20
Waxing Gibbous
Feb 25
Full
Mar 4
Last Quarter
Mar 11
New
Mar 19
First Quarter

Hourly Weather History & Observations

Time (WET) Temp. Dew Point Humidity Pressure Visibility Wind Dir Wind Speed Gust Speed Precip Events Conditions
12:00 AM 51 °F 50 °F 94% 29.85 in 4 mi SW 4.6 mph - - Rain , Thunderstorm Thunderstorms and Rain
2:48 AM 50.0 °F 46.4 °F 87% 29.86 in 3.7 mi West 12.7 mph - N/A   Partly Cloudy
3:00 AM 50 °F 46 °F 80% 29.86 in 4 mi West 12.7 mph - - Thunderstorm Light Thunderstorm
3:00 AM 50.0 °F 46.4 °F 87% 29.86 in 3.7 mi West 12.7 mph - N/A   Partly Cloudy
7:00 AM 48.2 °F 46.4 °F 93% 29.92 in 3.7 mi West 9.2 mph - N/A Rain Light Rain
8:00 AM 48.2 °F 46.4 °F 93% 29.95 in 3.7 mi WNW 9.2 mph - N/A   Mostly Cloudy
9:00 AM 49 °F 45 °F 79% 29.98 in 4 mi WSW 6.9 mph - - Rain Light Rain
9:00 AM 48.2 °F 44.6 °F 87% 29.95 in 5.0 mi WSW 6.9 mph - N/A Rain Light Rain
10:00 AM 51.8 °F 48.2 °F 88% 29.98 in 6.2 mi SSW 8.1 mph - N/A   Scattered Clouds
11:00 AM 53.6 °F 44.6 °F 72% 29.98 in 6.2 mi West 10.4 mph - N/A   Scattered Clouds
12:00 PM 57 °F 43 °F 49% 29.96 in 9 mi NW 10.4 mph - -   Partly Cloudy
12:00 PM 57.2 °F 42.8 °F 59% 29.98 in 6.2 mi NW 10.4 mph - N/A   Scattered Clouds
1:00 PM 53.6 °F 44.6 °F 72% 29.95 in 6.2 mi NW 16.1 mph - N/A   Scattered Clouds
2:00 PM 53.6 °F 44.6 °F 72% 29.95 in 6.2 mi WNW 8.1 mph - N/A   Scattered Clouds
3:00 PM 54 °F 43 °F 56% 29.97 in 9 mi NW 17.3 mph - -   Mostly Cloudy
3:00 PM 53.6 °F 42.8 °F 67% 29.98 in 6.2 mi NW 17.3 mph - N/A   Scattered Clouds
4:00 PM 53.6 °F 44.6 °F 72% 29.98 in 6.2 mi NNW 12.7 mph - N/A   Scattered Clouds
5:00 PM 51.8 °F 41.0 °F 67% 30.01 in 6.2 mi NNW 10.4 mph - N/A   Scattered Clouds
6:00 PM 51.8 °F 41.0 °F 67% 30.01 in 6.2 mi NW 10.4 mph - N/A   Scattered Clouds
7:00 PM 50.0 °F 42.8 °F 76% 30.04 in 6.2 mi Variable 2.3 mph - N/A   Scattered Clouds
8:00 PM 50.0 °F 42.8 °F 76% 30.04 in 6.2 mi WNW 4.6 mph - N/A   Scattered Clouds
9:00 PM 49 °F 43 °F 74% 30.08 in 9 mi SSE 3.5 mph - -   Mostly Cloudy
9:00 PM 50.0 °F 42.8 °F 76% 30.06 in 6.2 mi SSE 3.5 mph - N/A   Scattered Clouds
10:00 PM 48.2 °F 42.8 °F 82% 30.06 in 6.2 mi SSW 4.6 mph - N/A   Scattered Clouds
11:00 PM 48.2 °F 42.8 °F 82% 30.09 in 6.2 mi SW 8.1 mph - N/A   Scattered Clouds